"Pseudo-MPEC" for SCAX131

Created 2023 Nov 27 17:22:08 UT using Find_Orb

Click here for an explanation of pseudo-MPECs

 
 Astrometry: 
     SCAX131* C2023 11 06R!v?Astrometrya1W2Jqoredacted;8uCgcF0%uJ\sWj+1s]3IVNL92
     SCAX131  C2023 11 06Z3a^62S(.vod_;t?tIjVCGN3MfclickvvNVdi:TH\dxQ(^F#tKGPL92
     SCAX131  C2023 11 06nI*w\X=\T9de#TYW0[mNZxVD2u]wH,FS]\1Tr?G\^%jr\S*(3(^+L92
     SCAX131  C2023 11 06'J[E.XHnX!+nheref_f_`HDe9pformI,v744Bexplanation;_W;L92

Station data:
(L92) San Costantino  (N38.705391 E16.002110)  Italy.  Observer T. Scarmato.
   0.25-m Newtonian reflector + CCD.

Orbital elements:  SCAX131
   Perihelion 2023 Dec 12.67251 +/- 34.8 TT = 16:08:25 (JD 2460291.17251)
Epoch 2023 Nov  7.0 TT = JDT 2460255.5   Earth MOID: 0.2520   Ve: 0.0087
M 358.07871945 +/- 46               Sa: 0.2495                   AutoNEOCP
n   0.05385884 +/- 0.24             Peri.  195.79021 +/- 60
a   6.94434588 +/- 20.7             Node   248.94217 +/- 57
e   0.8966365 +/- 0.254             Incl.   47.57822 +/- 31
P  18.30                   H 15.73  G  0.15   U 11.8  SR
q 0.71779176 +/- 0.382    Q 13.1709000 +/- 5.94           (J2000 ecliptic)
From 4 observations 2023 Nov. 6 (29.5 min); mean residual 0".48
Residuals in arcseconds: 
231106 L92  .12+  .60+    231106 L92  .02-  .85-    
231106 L92  .16-  .45-    231106 L92  .06+  .69+    

Ephemerides (geocentric):
Date (UTC) HH   RA             Dec           delta  r     elong  mag " sig PA
---- --------  ------------   ------------  ------ ------ -----  --- --------
2023 11 27 17  17 45 34.766   +08 31 14.29  .29734 .77255  37.5 18??  38d  92
2023 11 27 18  17 45 32.040   +08 23 01.88  .29692 .77226  37.4 18??  38d  92
2023 11 27 19  17 45 29.298   +08 14 47.86  .29650 .77197  37.3 18??  38d  92
2023 11 27 20  17 45 26.540   +08 06 32.25  .29608 .77168  37.1 18??  38d  92
2023 11 27 21  17 45 23.767   +07 58 15.04  .29566 .77139  37.0 18??  38d  92
2023 11 27 22  17 45 20.977   +07 49 56.23  .29524 .77111  36.9 18??  38d  92
2023 11 27 23  17 45 18.171   +07 41 35.83  .29483 .77082  36.7 18??  38d  92
2023 11 28 00  17 45 15.349   +07 33 13.82  .29441 .77054  36.6 18??  38d  92
2023 11 28 01  17 45 12.512   +07 24 50.21  .29400 .77025  36.4 18??  38d  92
2023 11 28 02  17 45 09.658   +07 16 25.01  .29360 .76997  36.3 18??  38d  93
2023 11 28 03  17 45 06.787   +07 07 58.20  .29319 .76968  36.2 18??  38d  93
2023 11 28 04  17 45 03.901   +06 59 29.80  .29278 .76940  36.0 18??  38d  93
2023 11 28 05  17 45 00.998   +06 50 59.80  .29238 .76912  35.9 18??  38d  93
2023 11 28 06  17 44 58.079   +06 42 28.20  .29198 .76883  35.7 18??  39d 107
2023 11 28 07  17 44 55.143   +06 33 55.01  .29158 .76855  35.6 18??  39d 107
2023 11 28 08  17 44 52.192   +06 25 20.22  .29118 .76827  35.5 18??  40d 108
2023 11 28 09  17 44 49.223   +06 16 43.83  .29079 .76799  35.3 18??  40d 108
2023 11 28 10  17 44 46.238   +06 08 05.85  .29040 .76771  35.2 18??  40d 108
2023 11 28 11  17 44 43.237   +05 59 26.28  .29001 .76744  35.0 18??  40d 108
2023 11 28 12  17 44 40.219   +05 50 45.12  .28962 .76716  34.9 18??  40d 108
2023 11 28 13  17 44 37.184   +05 42 02.36  .28923 .76688  34.8 18??  40d 108
2023 11 28 14  17 44 34.133   +05 33 18.02  .28884 .76660  34.6 18??  40d 108
2023 11 28 15  17 44 31.065   +05 24 32.09  .28846 .76633  34.5 18??  40d 108
2023 11 28 16  17 44 27.980   +05 15 44.58  .28808 .76605  34.3 18??  40d 108
2023 11 28 17  17 44 24.878   +05 06 55.48  .28770 .76578  34.2 18??  40d 108
2023 11 28 18  17 44 21.760   +04 58 04.80  .28733 .76551  34.0 18??  40d 108
2023 11 28 19  17 44 18.624   +04 49 12.53  .28695 .76523  33.9 18??  40d 108
2023 11 28 20  17 44 15.472   +04 40 18.69  .28658 .76496  33.7 18??  40d 109
2023 11 28 21  17 44 12.303   +04 31 23.28  .28621 .76469  33.6 18??  40d 109
2023 11 28 22  17 44 09.116   +04 22 26.29  .28584 .76442  33.4 18??  40d 109
2023 11 28 23  17 44 05.913   +04 13 27.73  .28547 .76415  33.3 18??  40d 109
2023 11 29 00  17 44 02.692   +04 04 27.61  .28511 .76388  33.1 18??  41d 109
2023 11 29 01  17 43 59.454   +03 55 25.91  .28475 .76361  33.0 18??  41d 109
2023 11 29 02  17 43 56.199   +03 46 22.66  .28439 .76334  32.9 18??  41d 109
2023 11 29 03  17 43 52.927   +03 37 17.84  .28403 .76307  32.7 18??  41d 109
2023 11 29 04  17 43 49.638   +03 28 11.47  .28368 .76281  32.6 18??  41d 110
2023 11 29 05  17 43 46.331   +03 19 03.55  .28332 .76254  32.4 18??  41d 110
2023 11 29 06  17 43 43.007   +03 09 54.07  .28297 .76227  32.3 18??  41d 110
2023 11 29 07  17 43 39.665   +03 00 43.05  .28262 .76201  32.1 18??  42d 110
2023 11 29 08  17 43 36.306   +02 51 30.49  .28228 .76175  32.0 18??  42d 110
2023 11 29 09  17 43 32.929   +02 42 16.39  .28193 .76148  31.8 18??  42d 110
2023 11 29 10  17 43 29.535   +02 33 00.75  .28159 .76122  31.7 18??  42d 110
2023 11 29 11  17 43 26.124   +02 23 43.58  .28125 .76096  31.5 18??  42d 110
2023 11 29 12  17 43 22.694   +02 14 24.88  .28091 .76070  31.3 18??  42d 110
2023 11 29 13  17 43 19.247   +02 05 04.67  .28058 .76044  31.2 18??  43d 110
2023 11 29 14  17 43 15.783   +01 55 42.93  .28025 .76018  31.0 19??  45d 117
2023 11 29 15  17 43 12.300   +01 46 19.68  .27992 .75992  30.9 19??  45d 117
2023 11 29 16  17 43 08.800   +01 36 54.92  .27959 .75966  30.7 19??  45d 117